Theta_e
351 351 350 348 345 341 335 331 328 327 327 327 326 326 326 326 325 326 326 326 326 326 326 326 326 326 326 325 325 326 327 328 330 332 334 337 337 337 338 338 337 336 336 337 337 337 338 339 339 339 341 342 344 345 345 346 345 346 345 344 342 340 340 340 338 334 334 335 332 331 334 336 335 333 332 331 331 331 331 331 333 334 336 340 342
352 352 352 350 348 345 341 337 333 330 329 327 327 327 326 326 325 325 325 325 325 325 325 325 325 325 325 325 325 326 326 327 327 328 330 333 335 336 337 337 336 335 335 336 336 336 336 337 338 338 339 339 340 342 343 344 343 343 343 341 340 341 343 345 345 341 337 337 336 333 333 332 330 330 330 330 330 331 331 332 333 336 340 343 345
353 353 353 352 351 348 345 342 339 336 333 331 329 328 327 327 325 325 325 325 325 325 324 324 324 324 324 325 325 325 326 327 327 328 328 330 332 333 335 335 335 335 334 334 334 334 335 335 336 337 338 337 337 338 339 341 341 341 341 340 338 340 344 347 347 344 339 336 334 332 331 330 328 329 329 329 330 331 330 331 333 337 341 345 348
354 354 354 353 352 351 349 346 344 341 338 337 335 333 331 329 328 326 326 326 326 326 325 325 325 325 324 324 324 324 325 326 327 328 328 329 330 331 333 334 334 335 334 333 334 334 335 335 335 336 337 336 336 336 337 338 339 339 338 338 338 338 340 343 345 344 341 336 332 331 330 329 328 328 329 330 331 331 331 331 333 336 341 346 350
355 355 354 354 354 352 351 349 347 345 342 340 339 337 336 334 332 331 329 328 328 328 328 327 327 326 325 325 324 325 325 326 326 327 328 329 331 331 332 333 332 333 333 333 333 334 335 335 335 336 337 336 336 337 338 337 337 337 336 336 337 337 338 340 340 343 342 337 333 331 330 329 329 328 330 331 330 329 330 331 333 335 340 347 351
356 355 355 355 355 354 354 352 351 349 346 343 341 340 339 338 336 335 333 332 331 330 330 330 329 329 328 325 324 324 325 325 326 326 328 329 330 331 332 332 332 333 333 332 332 333 334 334 335 336 336 336 335 335 335 335 334 335 335 336 337 337 337 338 338 339 339 337 334 331 328 329 329 328 330 331 330 329 329 330 331 334 340 346 350
356 356 356 356 356 355 355 354 353 351 349 347 344 342 341 340 339 338 336 335 334 332 332 332 332 331 330 328 326 325 325 325 326 326 327 328 329 330 331 332 333 333 333 333 332 332 332 333 334 335 335 335 334 333 333 332 333 334 335 335 335 337 338 338 338 338 337 336 333 331 329 328 328 328 329 329 330 330 331 331 329 331 339 345 347
357 357 357 356 356 356 355 355 354 354 352 351 348 346 344 343 341 340 339 338 337 336 335 334 334 332 331 330 328 326 325 326 326 327 328 329 331 330 330 331 332 333 333 333 332 332 331 332 332 332 333 333 332 332 331 331 332 333 333 332 332 334 336 337 337 337 335 334 332 331 329 328 327 327 328 328 329 330 332 334 332 332 339 343 345
357 357 357 357 357 356 356 357 356 355 355 354 352 351 348 346 344 342 342 341 340 339 338 337 336 334 332 331 329 328 328 328 327 327 328 330 332 331 330 330 330 330 331 332 332 332 331 331 331 331 330 330 329 329 329 329 331 332 331 331 331 330 331 332 333 333 332 331 330 329 328 327 327 327 327 328 330 329 332 335 336 338 342 342 341
357 357 358 357 357 357 357 357 357 356 357 356 356 354 351 349 346 345 344 343 343 342 341 340 338 335 332 330 330 330 329 329 328 328 329 330 332 332 331 330 330 329 330 331 332 332 331 331 330 329 328 328 328 328 328 328 328 330 330 330 331 332 332 333 331 330 330 330 328 328 328 327 326 327 328 328 330 331 333 335 338 341 344 341 338
358 358 358 358 358 358 358 358 358 357 357 357 357 355 354 351 348 347 346 346 345 345 344 342 339 336 334 331 331 331 330 329 329 329 330 331 332 333 333 331 330 330 330 331 331 331 331 331 330 329 328 327 327 327 327 327 328 328 330 333 336 339 340 340 336 333 333 331 328 328 329 327 325 328 330 330 332 335 336 338 340 342 343 341 340
358 358 359 359 359 359 359 359 359 359 359 359 358 357 355 353 351 349 348 348 348 347 345 343 339 337 335 334 333 332 331 330 330 330 331 332 332 334 333 333 332 333 332 332 332 332 331 330 330 330 328 327 326 326 326 326 327 328 331 337 343 346 345 345 342 339 336 333 331 330 330 328 327 328 331 334 336 338 339 340 342 343 343 343 346
358 359 359 359 358 359 359 359 359 359 360 360 360 358 356 354 352 350 349 349 349 349 347 345 341 339 338 337 336 335 333 333 333 333 332 332 333 335 335 335 334 334 334 334 333 333 331 330 330 330 329 327 327 327 327 326 327 328 332 340 346 347 346 345 344 341 340 338 335 331 329 330 330 329 333 339 340 340 341 343 345 346 347 348 350
357 357 358 358 358 358 359 359 359 360 360 362 361 361 359 356 354 352 350 350 350 351 350 348 345 341 340 339 338 336 335 335 334 335 335 334 335 337 338 338 337 336 335 335 335 334 332 331 330 329 328 328 328 328 328 328 329 329 332 338 342 343 343 342 340 340 339 339 335 331 329 333 333 331 335 340 341 341 343 345 347 349 349 350 351
357 356 356 357 357 357 358 358 358 360 361 362 362 361 360 359 357 354 352 351 351 352 351 350 349 345 343 342 340 339 337 336 336 337 337 337 339 340 341 341 341 339 337 336 336 336 334 333 331 330 328 328 329 330 329 330 331 331 333 334 337 339 341 340 338 339 340 340 339 336 333 333 335 335 337 340 340 341 345 348 349 351 352 353 352
356 356 356 356 356 356 356 357 358 360 360 362 362 361 361 361 359 357 354 352 352 352 352 352 351 349 347 346 344 342 340 338 338 339 339 341 342 343 344 344 345 343 339 336 336 335 335 334 332 330 330 328 329 330 330 331 333 333 334 333 333 336 337 336 339 342 344 344 343 340 336 335 336 337 339 341 341 343 348 350 351 353 355 355 353
356 355 356 355 356 355 355 356 358 359 360 361 361 361 362 362 361 359 356 354 353 353 353 353 353 352 351 349 348 346 343 340 339 338 339 343 346 346 347 346 346 344 340 334 334 334 334 335 333 332 331 329 329 329 330 333 334 336 336 334 333 333 330 330 334 338 338 339 339 338 336 336 337 338 339 341 343 346 349 351 352 354 356 356 354
356 356 355 355 355 356 356 357 357 358 360 359 359 360 362 363 362 361 359 356 354 353 352 353 352 352 353 352 350 349 347 344 343 340 340 344 348 349 349 347 347 344 339 334 333 334 333 333 333 333 332 330 330 329 330 333 337 338 338 336 335 333 329 328 330 331 331 333 334 335 335 336 337 339 341 344 345 347 350 352 353 355 357 356 355
356 357 357 357 357 356 356 356 356 357 357 357 357 359 361 362 362 362 360 358 355 354 353 353 353 353 354 354 353 352 351 348 346 344 343 345 349 351 351 349 348 344 339 334 334 333 333 332 332 332 332 330 330 330 330 333 335 336 337 339 339 334 329 330 331 332 333 334 336 337 337 339 341 343 345 346 346 347 349 352 354 357 357 356 354
357 356 356 356 357 356 354 353 352 353 354 355 357 359 361 363 363 362 361 359 356 355 353 353 354 354 354 355 355 354 353 351 349 347 345 346 349 351 352 352 351 346 340 337 335 335 333 332 332 331 330 329 329 330 330 332 335 334 336 340 338 332 330 332 335 336 338 338 340 341 341 343 346 348 348 348 348 348 350 352 354 355 355 354 354
357 357 356 355 354 354 353 352 351 351 352 354 356 359 362 363 363 363 362 360 358 356 354 354 354 355 355 355 355 355 354 353 351 350 347 346 348 351 353 354 352 348 344 341 339 338 336 335 333 332 330 330 331 332 332 333 335 336 337 337 336 334 336 339 340 341 343 343 343 344 345 347 349 349 350 350 350 351 351 352 353 353 353 353 353
358 358 358 357 355 354 353 353 354 353 354 355 356 359 361 363 364 363 362 360 359 357 356 355 354 355 355 355 355 355 355 354 353 351 350 348 347 350 352 352 351 350 349 346 344 341 339 337 335 334 334 334 335 337 337 338 338 338 339 339 339 341 342 343 344 345 345 345 345 346 348 350 350 351 351 351 351 352 351 351 353 354 354 354 354
356 357 357 357 357 356 355 354 354 355 356 357 357 358 359 362 363 363 361 360 359 358 357 356 355 355 355 355 355 355 355 355 354 352 352 351 349 349 350 350 349 351 351 349 345 343 339 338 337 336 338 339 341 342 344 344 344 344 344 344 344 344 346 346 346 346 346 346 348 349 351 351 351 351 351 350 351 351 351 351 353 355 355 355 355
355 356 357 357 357 357 356 355 354 355 356 357 356 356 358 361 364 363 362 360 360 359 357 357 355 355 355 356 356 356 355 355 355 353 352 352 351 350 349 349 350 351 351 350 347 344 341 340 340 340 341 343 345 347 348 349 349 349 349 348 348 347 348 348 348 349 350 351 352 352 352 351 351 352 351 352 352 352 352 352 353 354 355 354 353
352 355 356 356 357 356 356 356 355 355 355 356 356 356 358 361 363 363 362 361 360 359 359 357 356 356 355 355 356 356 356 355 354 354 353 352 352 351 350 350 349 350 351 349 347 345 344 343 344 344 346 348 349 350 351 352 352 352 352 351 351 350 350 350 352 354 355 355 354 354 354 353 354 354 354 354 354 353 352 352 352 352 353 352 350
352 352 354 357 357 357 358 357 356 355 355 355 357 357 359 362 363 363 362 361 361 360 359 358 358 357 356 355 356 356 356 355 355 354 354 353 352 351 350 350 349 349 350 349 349 348 348 348 349 349 350 352 352 353 353 354 354 355 355 353 353 352 353 354 356 357 358 357 357 357 357 357 357 357 357 356 354 352 350 350 350 350 350 350 350
356 353 353 355 357 358 358 357 355 355 355 356 358 360 361 363 363 363 362 362 361 361 360 360 358 357 356 355 355 356 356 356 356 355 354 353 351 350 350 350 350 351 352 352 352 352 352 352 353 353 354 354 355 355 355 356 356 356 356 355 354 354 356 358 359 360 360 359 359 359 359 358 359 358 358 357 355 352 349 349 348 349 350 351 352
360 357 354 354 357 358 358 357 355 354 356 357 359 361 363 364 364 364 363 363 362 361 360 360 359 358 358 356 356 356 357 356 356 354 353 351 349 349 349 351 351 351 352 352 353 354 354 355 356 356 356 357 357 357 357 357 357 357 357 356 356 356 358 359 360 361 361 360 361 360 360 359 359 358 358 357 356 353 350 349 349 350 353 354 353
361 361 359 358 357 357 357 356 354 354 356 359 360 361 361 361 362 363 363 363 362 361 361 361 360 360 359 357 357 356 356 355 354 352 349 348 347 347 347 347 347 347 346 347 352 356 357 357 358 357 358 358 358 358 358 357 358 358 358 357 357 357 358 359 359 359 359 360 361 360 359 359 359 357 356 355 355 353 351 351 351 353 354 355 354
360 362 363 362 360 360 359 357 354 353 355 358 360 360 361 361 362 362 363 363 363 363 362 362 361 361 360 359 358 357 356 354 353 353 353 351 348 348 347 347 347 347 347 349 354 358 358 359 359 358 359 359 358 359 359 358 358 358 358 358 358 358 357 357 357 357 358 359 359 359 359 359 358 356 355 354 353 353 352 353 354 354 354 356 355
358 361 364 364 365 365 362 359 356 353 354 356 359 360 361 364 365 364 364 364 364 364 363 363 363 362 362 361 360 358 357 355 354 355 355 354 353 352 351 351 352 353 353 355 357 358 359 359 359 359 359 360 360 360 359 359 359 359 359 359 358 358 358 357 357 357 358 358 358 359 359 359 357 356 356 355 355 354 355 355 356 355 355 355 353
356 359 363 365 366 365 363 360 359 358 357 357 360 361 363 364 365 366 366 366 365 365 365 365 364 364 363 363 362 361 359 358 356 355 355 355 356 355 355 356 356 356 357 358 359 359 359 359 359 359 360 361 361 361 361 360 360 360 359 360 359 359 359 359 359 358 358 359 359 359 359 359 357 357 356 356 356 356 356 356 357 356 355 353 351
354 357 361 364 364 364 364 362 361 363 363 363 364 365 365 365 367 367 367 367 367 366 366 366 366 366 365 365 364 363 363 361 360 357 356 356 355 355 356 357 357 357 359 360 359 359 359 359 360 362 362 363 363 363 362 362 362 362 361 362 362 361 360 360 359 359 359 359 359 359 358 358 357 357 357 357 356 356 357 357 356 354 352 352 350
352 356 358 362 363 364 364 364 363 363 365 366 367 367 367 368 368 368 368 368 368 368 367 367 367 366 366 366 366 365 364 364 362 361 359 357 356 355 355 356 356 356 357 359 359 359 359 360 362 363 364 365 365 365 365 364 364 363 363 362 362 361 361 360 359 359 360 359 359 359 359 358 357 357 357 357 357 357 357 356 353 351 351 350 347
350 353 356 358 360 361 362 364 364 365 366 366 367 367 367 367 368 367 368 367 367 367 366 367 368 367 367 367 367 366 365 365 364 363 361 360 359 357 357 356 356 356 357 358 359 358 360 362 363 365 366 366 366 366 365 364 364 362 361 361 360 360 360 360 360 359 359 360 359 359 359 358 358 358 357 357 356 357 357 355 353 351 349 345 338
349 351 353 355 357 358 360 361 362 363 365 367 367 366 366 368 367 367 366 366 365 364 363 363 364 366 367 366 366 366 366 365 365 363 361 361 360 359 359 358 357 357 357 358 358 359 361 363 365 365 366 366 366 365 365 363 362 361 359 359 359 359 360 360 360 360 360 359 359 359 359 358 358 358 357 357 356 356 356 355 352 349 344 339 332
347 349 350 352 354 356 359 360 360 360 361 365 367 367 368 368 368 366 365 366 367 366 362 358 356 359 364 366 366 366 366 365 364 363 362 361 361 360 360 361 361 361 361 361 361 362 363 365 366 366 366 367 366 365 364 362 360 359 359 359 359 359 359 360 360 360 360 360 359 359 359 359 358 358 357 357 356 355 354 351 349 346 340 334 332
346 348 349 350 352 354 356 358 359 359 360 362 365 366 367 367 367 366 366 367 368 367 364 361 358 357 361 365 365 365 365 364 364 362 362 362 362 363 363 364 364 364 365 366 365 366 366 366 366 366 366 366 365 363 361 359 357 357 357 358 358 358 359 359 360 360 360 360 359 359 359 358 358 358 357 356 355 353 351 348 346 342 336 331 330
346 348 348 349 351 354 355 355 357 359 361 362 363 365 365 365 365 365 366 367 368 366 364 363 360 358 357 362 364 365 364 364 364 363 364 364 364 365 366 366 365 366 367 367 366 367 367 365 365 365 366 365 364 362 359 358 357 357 357 357 358 359 360 360 360 361 360 360 360 359 358 357 357 357 355 353 350 348 347 344 339 336 333 331 330
345 347 349 349 350 353 354 354 356 358 360 361 362 362 362 361 361 362 364 365 366 365 362 360 358 354 354 359 364 365 364 364 364 364 364 365 366 366 366 366 366 367 368 367 367 367 367 365 365 365 365 364 362 359 358 357 356 357 357 358 358 359 359 359 359 360 360 359 359 358 357 355 354 354 353 350 347 344 342 340 336 333 332 332 332
342 344 348 349 350 351 352 354 356 358 359 360 360 360 359 358 359 360 362 363 363 361 359 360 358 356 356 359 362 364 365 365 364 364 365 366 367 367 367 367 367 368 367 368 367 367 365 364 364 364 363 363 360 358 357 354 352 354 357 358 358 359 359 358 358 358 358 357 355 354 353 352 351 351 350 347 344 342 339 337 334 333 331 331 331
338 340 343 346 347 349 350 351 353 355 356 357 357 357 357 358 359 359 361 361 359 358 358 359 359 359 360 361 362 364 365 364 364 365 366 366 366 366 366 366 366 367 366 366 366 366 365 364 364 363 362 360 358 356 356 356 356 356 357 358 359 359 358 357 355 355 354 353 351 350 349 349 348 347 345 343 341 339 336 333 332 332 331 331 331
337 338 339 340 342 344 345 347 351 352 353 354 355 355 356 357 357 358 358 358 356 356 357 357 357 359 360 362 362 363 364 364 364 364 365 366 366 366 365 364 364 364 363 363 363 363 363 362 362 360 358 356 354 354 356 357 357 355 353 353 355 355 355 352 351 350 349 348 348 347 346 344 342 341 339 338 337 335 332 331 331 331 331 330 329
336 338 338 338 338 338 337 339 345 350 351 351 352 354 355 356 356 357 356 356 355 356 356 356 356 358 359 360 361 362 361 361 361 361 360 360 360 359 359 359 358 357 357 357 357 358 358 357 356 355 355 354 353 354 354 354 353 352 350 349 349 350 350 349 348 346 345 344 342 341 339 338 336 335 334 333 331 330 330 330 331 331 330 329 328
332 336 338 337 338 337 334 332 335 342 347 348 349 349 351 352 353 353 354 354 354 354 354 353 354 357 359 359 360 359 358 357 356 355 354 354 355 354 354 354 353 352 353 353 353 353 353 353 352 352 352 353 352 351 350 349 349 348 347 345 345 345 345 344 344 343 341 339 337 336 334 333 331 329 329 328 328 329 330 330 329 328 328 328 328
328 333 336 336 336 338 338 334 333 337 341 344 343 343 345 346 346 346 346 348 349 350 350 351 351 354 356 357 355 354 354 354 353 352 351 352 353 352 351 350 350 350 350 350 349 349 349 349 349 349 348 347 346 346 345 344 343 343 343 341 341 340 340 339 338 337 336 334 333 332 330 328 327 327 328 328 329 330 330 329 327 326 327 327 327
327 331 335 335 334 336 337 336 335 336 338 337 337 335 335 336 337 337 336 338 341 343 344 346 347 348 350 351 351 350 351 351 351 351 350 349 349 347 346 345 345 345 345 345 344 344 344 344 344 344 343 342 342 341 340 340 339 340 340 339 338 337 336 335 333 332 332 331 330 329 328 327 327 328 329 329 329 329 329 329 327 326 326 327 327
326 329 333 334 334 334 335 335 335 336 336 337 337 335 332 332 334 331 329 332 338 341 341 343 346 346 346 348 348 348 349 349 348 347 346 344 343 342 341 341 340 340 340 340 339 339 339 339 339 339 339 338 337 337 336 336 335 336 336 336 335 334 333 332 331 330 330 329 329 329 329 329 329 329 328 328 328 327 328 328 327 327 327 327 327
325 327 331 332 333 333 334 333 333 334 334 334 337 336 335 335 336 332 328 331 338 340 337 337 339 340 342 344 344 344 344 344 343 341 339 338 337 336 336 336 336 336 336 335 335 335 335 335 335 335 335 334 334 334 333 333 333 332 332 332 331 331 330 330 329 329 329 328 328 328 329 329 329 328 328 327 328 327 327 327 327 327 327 327 327
325 326 328 330 331 331 332 332 331 330 329 330 332 333 333 333 334 332 331 333 337 337 335 334 335 335 335 336 337 337 338 338 336 335 334 333 332 331 332 332 333 332 332 331 331 331 331 331 331 332 331 331 331 331 330 330 330 329 328 328 328 328 328 328 327 327 327 327 327 327 328 328 328 328 327 327 326 326 325 325 325 325 325 325 324
327 326 327 329 329 328 329 329 328 325 324 323 325 327 328 328 327 327 329 332 333 333 333 334 335 334 332 331 331 331 332 332 331 330 330 329 328 328 329 329 330 329 329 329 328 327 327 327 327 328 328 328 328 328 328 328 327 327 326 326 326 326 326 326 326 326 326 326 326 327 327 327 327 327 326 326 326 325 324 324 323 323 322 322 321
Wind_Speed
48 48 48 48 49 49 48 48 47 46 45 44 43 42 41 40 39 38 36 35 33 31 30 28 27 26 25 24 23 22 21 21 20 19 19 19 18 18 19 19 19 18 18 17 16 15 15 14 14 13 13 13 13 14 16 17 17 15 14 12 11 10 9 8 10 9 6 6 8 8 9 11 12 12 13 13 13 14 14 14 15 15 15 14 14
49 48 47 48 49 49 49 48 48 47 47 46 45 44 43 41 40 40 39 38 36 35 33 31 30 29 28 27 26 25 24 23 23 22 22 21 20 19 19 20 20 19 19 19 18 17 16 16 15 13 13 13 13 13 13 14 14 14 12 12 11 10 9 9 11 12 8 6 7 8 8 9 10 10 11 12 12 13 13 14 14 14 13 13 13
49 47 46 46 46 48 49 49 48 48 48 48 47 46 45 43 42 41 40 39 38 37 35 33 32 32 31 30 29 28 27 25 25 25 24 23 22 21 21 21 21 20 20 20 19 18 18 17 16 15 15 15 14 14 14 14 14 14 13 13 13 12 11 11 12 13 13 11 9 8 7 8 9 8 10 12 12 13 14 15 14 13 12 13 14
49 48 46 45 44 45 48 49 50 49 48 48 47 47 46 45 44 43 42 41 39 38 37 35 35 34 34 33 32 31 30 28 26 25 25 25 24 23 22 22 22 21 21 20 19 19 19 18 17 16 16 16 15 15 15 15 15 15 15 14 14 14 12 12 13 14 16 15 13 10 10 9 9 10 11 12 13 14 15 16 16 15 14 13 14
49 49 47 45 44 44 46 48 50 50 49 48 47 46 46 46 45 45 44 43 42 40 39 38 37 37 36 35 34 33 32 30 28 26 25 25 25 24 24 23 23 22 21 21 20 20 20 19 17 16 16 16 16 16 16 16 15 15 15 15 15 15 14 14 15 16 17 18 16 13 12 12 12 12 13 14 16 17 17 18 18 18 17 16 15
49 49 48 47 46 45 44 45 48 49 50 49 47 46 46 46 46 46 46 45 44 43 41 40 39 38 37 36 35 35 33 32 30 28 27 26 26 26 25 24 24 24 23 22 21 21 20 20 19 18 17 17 17 17 16 17 16 16 16 15 14 15 15 16 16 17 18 19 17 15 13 13 15 14 14 16 19 20 21 21 20 19 19 19 18
49 49 48 48 47 46 45 44 44 45 47 48 48 47 46 47 46 46 46 46 46 45 43 42 40 39 38 37 36 36 35 34 33 31 29 28 28 28 27 26 25 24 24 23 22 22 21 21 20 20 20 19 18 17 17 17 17 17 16 15 14 15 15 16 16 17 18 18 17 16 16 16 17 17 16 18 20 21 22 24 24 22 21 21 22
49 49 48 48 48 47 45 44 42 42 43 45 47 47 47 47 47 46 46 46 46 45 44 43 41 40 39 38 37 37 36 36 35 33 32 31 30 29 28 28 26 25 24 23 23 23 22 21 21 21 21 21 20 20 19 19 19 18 17 16 16 16 16 16 16 16 17 18 17 17 17 18 18 18 19 19 21 22 22 24 26 25 24 24 25
48 48 48 48 47 46 45 44 43 42 42 43 46 47 47 47 46 46 47 47 46 45 44 43 42 41 40 39 38 38 38 38 36 35 34 33 32 30 29 29 28 26 25 24 23 23 22 22 22 21 21 21 21 21 21 21 21 21 19 18 18 18 17 17 17 17 17 18 18 17 19 20 19 19 20 20 21 23 23 24 26 25 25 27 26
47 48 48 48 47 45 44 44 43 42 42 42 44 46 47 47 46 46 47 47 46 45 44 44 43 42 41 40 39 39 39 39 37 35 34 33 32 31 30 29 29 27 26 25 25 24 23 22 22 21 21 20 20 20 21 21 22 22 21 19 18 18 17 16 17 17 17 18 19 19 21 22 20 20 21 21 21 23 24 25 26 25 26 28 27
47 47 47 47 45 45 45 44 44 43 42 41 42 44 46 46 46 47 47 47 47 46 45 44 44 43 42 41 40 40 39 38 36 35 33 32 32 32 31 30 29 28 27 26 25 24 23 22 21 21 20 20 19 19 19 20 21 20 19 18 16 15 15 16 16 17 18 19 20 20 22 22 21 21 22 22 22 23 23 24 26 26 27 28 26
48 48 47 45 45 44 44 44 43 44 43 41 40 41 44 46 47 47 47 47 47 47 46 45 44 44 43 42 41 41 40 38 36 34 33 32 31 32 32 31 31 30 29 27 26 25 24 23 22 21 21 20 19 19 19 19 20 19 18 16 16 16 17 18 19 19 19 21 22 22 22 22 22 22 22 23 22 22 23 23 24 25 24 24 22
47 47 47 46 46 45 44 44 44 44 44 43 41 40 41 44 46 47 48 47 47 47 47 46 45 44 44 44 43 42 40 38 36 35 33 32 32 32 32 32 32 31 30 28 27 26 25 24 23 22 21 20 20 20 19 19 19 19 19 19 19 20 21 21 21 22 22 23 23 23 21 21 23 23 22 22 22 21 21 21 21 21 20 19 18
46 47 47 47 46 46 46 46 45 44 44 43 42 41 41 42 44 46 47 47 47 48 48 47 46 45 44 45 44 43 41 39 37 36 34 33 32 33 34 34 33 32 31 30 29 28 26 25 24 23 22 21 21 21 20 20 19 20 20 21 22 22 23 23 23 23 23 24 24 23 22 22 24 24 23 21 20 20 20 19 19 18 17 16 16
47 47 48 48 47 47 47 47 47 46 45 44 43 43 42 42 43 44 46 47 48 48 48 48 47 46 44 44 44 44 42 40 39 37 35 33 32 33 34 35 35 34 33 32 31 30 28 27 26 24 23 22 22 22 21 21 21 21 22 23 23 23 24 24 23 23 24 24 25 25 24 24 25 26 24 22 20 19 18 18 18 17 17 17 16
46 47 47 48 47 46 46 46 47 47 46 45 45 45 44 43 43 43 44 46 47 47 48 48 48 47 45 44 44 44 42 40 39 38 35 33 32 32 33 34 35 35 34 32 32 31 30 29 28 27 25 24 23 22 22 22 23 24 24 24 25 25 26 25 25 25 25 26 26 26 26 25 26 26 25 23 21 20 18 18 17 16 17 18 18
43 45 46 46 45 44 44 45 48 48 47 45 45 45 45 45 43 42 43 46 47 48 48 48 48 47 47 46 45 45 43 40 39 37 35 34 32 32 32 33 34 35 34 32 32 32 32 31 30 29 28 26 24 23 23 24 24 25 25 26 26 27 27 26 26 26 26 27 27 27 26 25 25 25 25 23 21 19 19 19 17 15 17 20 19
44 44 45 45 45 43 43 44 47 48 48 46 45 44 45 45 44 43 43 44 46 47 48 47 48 48 48 47 46 45 44 41 39 37 35 34 33 32 31 31 32 32 32 32 32 33 33 32 31 31 30 29 27 25 24 25 25 26 26 25 26 27 25 24 23 24 24 24 25 25 25 25 25 25 24 23 21 18 19 19 17 16 19 20 19
43 45 46 46 45 43 42 43 45 46 48 48 46 45 44 44 45 44 43 44 45 47 47 47 47 48 48 48 47 46 44 42 40 39 37 36 35 33 32 31 31 30 30 31 32 33 33 32 32 32 31 30 29 28 27 26 27 27 27 26 28 28 24 22 23 23 23 24 24 24 25 25 25 25 25 24 21 19 19 18 17 18 20 20 17
30 37 41 42 43 42 40 40 42 44 46 47 46 46 45 45 45 45 45 44 44 45 47 47 48 48 47 47 47 47 45 43 42 39 38 37 37 35 34 33 32 31 30 29 30 31 31 31 31 31 30 30 29 29 28 28 29 29 29 30 31 28 24 24 26 27 27 27 27 26 27 26 26 27 26 24 21 18 17 17 17 18 20 19 17
22 26 31 35 39 41 40 39 41 42 45 46 46 45 45 46 46 46 46 45 44 45 46 47 47 47 47 47 47 47 47 45 43 40 38 38 37 37 36 36 35 33 32 31 30 30 29 28 28 27 28 28 28 28 29 29 30 30 31 32 31 29 27 29 30 29 30 30 30 29 29 28 28 28 26 24 21 19 17 16 16 17 18 18 18
24 24 27 30 34 39 41 43 44 45 46 46 46 46 45 46 48 47 47 46 45 45 46 47 47 46 46 47 48 48 47 46 44 42 39 38 38 38 38 38 37 35 35 34 33 31 29 28 26 25 25 26 26 27 28 29 31 32 32 32 31 31 31 32 32 32 33 32 31 30 30 29 28 27 26 25 23 22 20 19 17 17 18 19 19
26 27 28 30 31 33 36 40 43 46 46 46 47 47 46 47 48 48 48 47 46 45 46 46 47 46 46 47 48 48 48 47 45 44 41 39 39 39 39 39 38 37 37 37 36 34 31 30 28 26 26 26 26 27 28 28 30 32 32 32 33 33 34 34 34 34 32 31 30 29 28 27 27 26 25 25 24 24 23 21 20 20 20 20 21
28 29 31 33 33 33 33 35 39 44 46 46 47 47 46 47 49 49 48 47 46 46 46 47 48 48 47 47 47 47 47 47 46 45 43 41 40 39 40 40 39 39 39 39 38 37 35 33 31 29 28 28 27 26 27 27 28 29 29 30 30 31 31 31 30 29 28 27 27 26 25 24 24 24 23 23 23 24 23 23 23 24 23 23 24
30 32 33 34 35 35 34 34 36 42 46 47 48 47 46 47 49 50 49 48 47 47 48 48 49 49 48 48 47 47 47 46 46 46 44 43 41 40 40 40 40 41 42 42 41 40 38 36 33 31 30 29 28 27 27 27 27 27 26 26 26 26 27 26 25 24 24 24 23 22 21 20 19 19 19 21 23 23 23 24 24 25 26 26 25
30 33 35 36 35 35 35 34 36 40 45 48 49 48 48 48 50 51 50 49 49 49 49 49 49 50 50 49 48 47 46 46 46 46 45 43 41 40 39 38 38 38 40 41 40 40 39 37 34 33 32 31 30 29 29 27 27 26 25 24 24 23 23 23 22 22 22 21 21 20 19 17 18 18 19 20 21 21 22 22 23 23 24 24 23
29 32 34 36 35 34 35 36 36 40 45 49 49 48 47 48 50 51 51 52 52 51 50 49 49 50 51 51 49 46 45 46 46 46 45 44 41 38 36 35 34 34 36 37 36 36 36 35 35 34 34 33 32 32 31 30 29 28 27 25 23 21 20 20 21 21 22 22 21 20 19 19 20 20 20 21 20 19 19 20 20 20 19 20 20
26 29 32 34 35 34 35 37 38 40 45 48 49 48 48 48 50 52 52 53 53 52 51 50 50 50 51 50 48 46 45 46 47 48 47 45 41 38 35 32 31 32 33 33 32 32 33 34 35 35 35 35 34 34 33 32 31 29 28 26 24 22 21 21 22 23 23 23 23 22 21 21 21 22 21 21 20 18 18 19 18 17 17 18 20
25 26 28 31 34 34 35 38 39 41 44 48 48 48 48 48 49 51 52 53 53 52 51 50 49 49 49 48 47 47 48 50 51 50 48 44 41 38 35 33 31 30 29 28 29 31 33 34 35 36 35 35 35 35 35 34 33 31 30 28 26 25 24 24 25 25 25 24 24 23 23 22 21 21 20 20 19 17 16 17 16 15 16 19 21
25 24 25 28 31 32 33 37 40 42 45 47 48 48 48 48 48 49 51 52 52 51 50 49 47 46 47 48 48 49 50 51 51 49 47 45 42 39 37 34 32 30 27 26 29 33 35 36 36 36 35 35 36 36 36 35 34 33 31 30 29 28 27 27 27 27 27 26 25 24 23 22 20 18 17 17 15 14 14 15 16 16 17 19 22
26 24 23 23 26 27 30 35 41 44 46 47 48 48 48 48 49 50 50 50 50 49 48 47 45 45 45 46 47 48 49 50 49 48 47 45 43 41 38 36 34 31 29 28 31 34 35 35 35 34 34 36 37 37 36 36 35 34 33 33 31 30 29 28 26 25 24 23 22 21 21 19 18 16 15 15 14 14 15 16 18 20 22 22 22
27 25 22 20 21 24 28 34 39 42 45 47 49 49 50 50 50 51 50 48 47 46 45 44 43 44 44 44 44 45 46 48 49 48 46 44 43 41 39 36 34 31 30 31 33 34 34 34 34 32 33 35 35 34 35 35 34 34 34 33 32 31 29 27 24 21 19 18 17 17 17 17 16 15 15 16 15 15 16 18 21 23 23 21 20
27 26 22 18 17 22 28 34 38 39 41 43 45 47 50 52 52 52 50 47 45 43 41 40 41 41 42 42 43 43 44 44 45 46 45 45 43 41 38 36 34 32 32 33 34 33 33 32 32 31 32 32 31 31 32 32 32 32 32 32 31 29 27 24 21 19 18 16 15 15 16 16 17 16 16 18 18 17 18 20 22 22 21 20 21
26 28 25 20 18 21 27 34 39 41 41 42 41 41 42 45 46 46 45 44 42 41 39 38 38 38 38 40 41 41 41 41 41 41 41 42 42 41 40 39 37 36 34 34 33 32 32 32 31 30 29 29 29 29 28 27 28 28 29 28 27 25 22 21 19 18 17 15 15 16 17 18 18 18 18 19 20 21 22 23 22 21 20 20 20
24 26 25 23 22 21 23 28 35 40 43 44 43 40 39 39 39 39 39 39 39 38 37 36 36 36 36 38 39 40 39 38 37 37 37 37 37 38 39 40 39 38 37 35 34 32 32 31 30 29 28 28 28 26 24 23 23 24 24 24 23 21 19 18 18 17 16 16 17 18 19 19 19 19 20 20 20 23 24 24 22 20 20 19 18
19 22 23 23 23 22 22 24 28 31 36 42 44 43 40 37 36 37 37 37 36 36 35 33 33 33 34 35 36 37 37 37 36 35 34 34 34 34 35 36 36 36 35 34 33 32 32 31 30 28 28 28 26 23 20 18 19 19 20 20 19 19 18 18 18 18 18 18 19 19 20 20 20 21 21 22 22 23 23 23 21 20 19 18 16
12 16 20 22 23 23 25 28 28 27 29 34 38 39 37 35 34 35 36 35 35 35 34 32 31 31 31 32 33 35 36 35 35 34 32 32 32 32 32 32 32 31 31 31 31 30 30 29 28 29 29 29 25 20 16 17 19 20 19 18 18 18 18 18 19 19 19 19 20 21 22 21 21 22 23 23 23 22 22 22 21 20 20 19 16
7 10 14 16 17 20 26 32 33 33 34 33 34 35 35 34 34 34 34 34 34 34 36 36 34 31 29 29 31 33 34 34 33 33 32 31 31 32 32 32 31 31 31 30 29 29 30 30 31 31 30 26 20 16 15 19 22 21 19 18 19 19 19 20 20 20 20 20 21 21 22 23 23 24 24 23 21 21 22 22 22 21 20 19 18
5 7 8 8 10 17 27 32 33 36 40 39 39 38 36 34 33 33 32 32 33 34 37 39 36 31 28 28 31 33 33 32 31 31 31 31 31 32 33 33 33 32 32 31 30 30 30 30 30 28 24 20 17 17 19 21 21 20 19 20 20 21 20 20 20 21 22 22 22 23 24 23 22 22 21 20 19 20 22 23 22 20 18 18 18
2 3 6 9 10 15 23 28 31 35 39 39 39 40 38 36 35 35 34 34 34 36 38 39 37 32 30 30 32 34 33 32 32 31 31 32 32 32 32 32 33 33 32 31 30 29 27 26 25 24 22 20 19 19 20 19 19 19 19 20 20 19 19 19 20 22 23 23 23 22 21 19 19 19 19 19 19 21 23 24 24 22 19 18 18
5 5 8 13 16 17 19 22 26 31 33 34 33 33 34 34 33 34 35 34 35 37 39 40 39 36 33 32 33 33 33 33 33 33 33 34 33 32 31 31 31 31 30 29 28 27 26 27 26 25 23 21 19 19 20 20 20 20 20 20 19 19 18 18 19 20 21 20 18 18 17 17 18 18 18 19 21 24 26 26 25 23 20 18 17
6 5 8 13 16 18 18 20 23 24 25 26 26 25 25 27 28 31 33 34 36 38 41 42 40 38 35 33 33 34 34 34 34 34 34 33 31 30 30 30 29 28 27 27 26 26 26 27 26 24 22 21 20 21 23 25 26 25 23 22 21 19 18 16 16 18 18 16 15 16 17 17 17 17 17 19 22 25 25 23 21 20 18 16 16
10 8 4 8 14 17 18 18 22 23 22 22 23 24 24 26 29 31 33 35 36 38 40 39 39 38 36 34 35 35 35 35 36 36 35 33 31 30 30 29 28 26 25 25 24 24 25 25 24 22 20 18 18 19 21 23 23 22 19 18 18 18 17 17 16 16 16 15 15 16 16 15 15 15 17 19 22 22 21 19 17 17 17 16 15
12 11 9 6 6 12 16 18 21 26 26 25 26 28 30 32 34 36 37 37 38 40 40 38 37 38 36 34 33 33 34 34 33 31 29 27 25 24 22 21 20 19 18 17 17 18 18 18 17 17 16 16 17 19 19 18 18 16 13 12 13 15 16 16 16 15 15 15 15 15 15 15 15 16 17 18 19 18 16 15 15 15 16 16 15
10 9 10 10 8 6 8 12 17 24 28 29 29 30 32 35 36 38 40 41 41 41 40 38 36 36 35 33 31 31 30 28 23 19 16 15 14 14 14 15 15 15 14 14 14 14 14 14 14 14 15 15 16 16 14 13 11 10 9 9 10 11 12 13 13 14 14 15 15 15 15 15 15 15 15 16 15 15 14 14 14 15 16 16 17
10 9 9 10 11 10 9 10 13 17 23 26 29 31 32 34 35 36 39 42 43 42 41 39 37 35 35 32 29 27 24 20 15 12 11 12 13 14 14 15 15 15 15 14 13 13 12 12 12 11 10 10 10 9 8 7 6 6 7 8 8 9 10 11 12 13 14 15 15 16 16 15 15 14 14 14 13 13 14 15 15 15 17 18 18
10 10 9 10 11 11 11 12 14 15 16 18 21 24 27 31 34 34 35 38 39 39 38 36 33 32 32 30 26 22 19 16 14 14 14 15 16 16 15 14 14 13 13 12 11 11 10 9 8 7 7 8 8 7 7 7 7 8 8 9 9 9 9 10 10 12 13 15 15 14 14 14 14 14 13 13 12 12 13 15 15 16 17 18 18
9 10 10 11 12 13 12 13 15 17 16 16 16 16 20 26 29 30 32 36 37 35 33 31 27 26 26 25 22 19 17 16 16 16 16 16 16 15 14 13 12 11 11 10 10 10 9 9 8 8 9 10 10 10 10 10 10 10 11 11 11 11 11 11 12 13 13 13 13 12 12 13 13 12 12 12 12 12 12 13 15 15 16 16 16
6 9 10 11 13 14 14 14 16 17 18 19 18 18 19 22 24 24 27 32 34 32 31 32 30 28 26 24 22 21 19 18 18 17 16 15 15 14 13 12 12 11 11 10 11 11 11 10 10 10 11 12 12 12 12 13 13 13 13 13 13 13 13 13 13 13 13 12 12 11 12 12 12 12 12 13 13 13 13 13 13 14 15 15 15
5 8 9 10 12 13 13 14 16 18 19 21 23 23 23 24 24 23 24 27 28 26 26 28 28 28 27 25 24 23 22 21 20 19 18 17 16 15 14 13 13 12 12 12 12 12 11 11 11 12 12 13 14 14 14 14 13 13 13 13 13 13 13 13 12 12 12 12 12 12 12 13 14 14 14 14 14 14 14 14 14 15 16 16 16
7 8 10 11 12 12 12 13 14 16 18 21 23 25 25 26 26 26 25 25 26 25 24 23 22 21 22 23 23 22 22 22 21 21 20 20 19 17 15 14 14 13 13 14 14 14 14 14 14 14 14 14 15 15 15 15 14 14 13 13 12 12 12 12 12 12 12 13 13 13 13 14 14 15 15 15 15 15 15 15 16 16 16 16 17
Wind_Direction
219 220 221 222 222 220 218 216 216 217 219 222 225 227 227 229 230 231 232 232 233 234 234 234 235 235 234 233 232 231 228 226 226 226 227 227 226 225 226 228 232 233 233 232 228 225 226 228 232 234 234 235 231 224 225 232 240 243 243 247 254 261 267 274 280 278 259 252 260 255 257 269 275 281 286 288 291 295 299 307 314 316 317 319 324
218 220 222 222 224 224 222 219 218 218 220 222 225 227 229 229 230 232 233 234 234 234 234 234 235 236 237 236 235 234 233 231 228 228 229 230 229 228 226 226 230 232 232 232 232 231 230 230 232 233 235 240 240 237 235 236 242 245 245 250 256 257 260 274 285 285 272 257 266 266 266 275 279 282 291 297 303 308 313 319 319 316 318 321 328
218 221 222 224 226 226 225 223 221 220 221 223 225 228 229 231 232 232 233 235 235 236 235 235 234 235 237 237 237 237 236 235 232 230 230 230 231 231 230 228 229 230 232 233 233 234 235 234 234 234 236 239 239 239 241 242 246 252 253 257 260 257 258 267 277 284 286 282 282 281 280 284 288 298 309 313 317 319 322 325 322 319 323 327 331
218 220 222 225 226 227 227 226 225 224 223 224 226 228 230 232 233 234 235 235 236 237 237 237 237 236 236 236 237 238 238 237 236 233 230 230 232 232 233 233 232 231 231 232 234 237 238 237 235 235 237 238 236 235 239 242 246 252 256 259 262 263 263 266 271 280 287 289 292 297 300 302 306 315 321 321 321 322 325 328 327 325 329 332 332
217 219 222 224 226 227 228 228 227 227 226 226 227 228 230 232 233 235 236 237 238 238 239 239 239 239 237 237 237 238 239 240 239 236 232 231 231 232 232 234 235 234 233 233 234 236 239 239 237 236 238 240 238 237 239 243 246 252 256 259 262 266 267 268 272 276 282 288 294 299 304 308 312 318 323 323 322 326 329 329 328 328 330 333 331
217 219 221 223 225 227 229 229 230 230 229 229 229 230 231 232 234 236 237 238 239 239 239 240 240 240 240 238 238 239 241 242 242 241 238 234 232 232 232 233 234 236 236 236 236 236 237 239 239 239 241 243 243 243 244 247 251 254 257 259 263 266 268 268 270 273 276 282 289 295 303 309 311 316 322 321 321 326 330 328 328 330 331 329 328
217 219 220 222 225 227 229 230 231 233 233 232 232 232 232 233 234 236 238 238 239 240 240 240 240 240 240 240 240 240 241 243 245 245 244 242 239 236 234 233 233 234 237 238 239 239 239 239 239 239 242 244 246 247 248 251 254 256 256 259 261 263 265 266 266 268 271 275 282 292 301 305 308 313 320 321 320 325 328 326 326 330 330 326 327
216 218 219 221 225 228 230 231 233 234 236 235 235 234 234 234 235 236 237 238 239 240 240 241 240 240 240 240 241 241 242 243 245 246 246 246 245 242 239 236 234 234 236 237 239 241 241 241 241 241 241 244 246 248 250 252 253 255 256 258 259 259 260 261 261 262 266 272 280 288 296 300 305 312 318 320 321 323 324 320 320 325 327 324 324
215 216 218 221 226 229 231 232 233 235 237 237 237 236 235 235 236 236 237 238 239 240 241 241 241 240 239 239 240 240 241 243 244 245 246 247 247 246 243 241 239 238 238 238 239 240 241 243 243 243 243 244 245 247 248 249 250 253 255 257 258 259 259 259 260 262 265 271 278 286 293 297 304 312 316 319 320 320 320 317 316 318 319 318 320
215 217 219 223 227 229 230 232 233 235 237 238 239 238 236 236 235 236 237 239 240 240 240 241 241 240 239 238 238 239 240 242 244 245 246 247 247 247 246 244 242 242 242 241 240 240 242 244 244 244 244 243 243 244 244 245 247 250 252 254 255 256 258 260 261 263 268 272 278 286 292 296 304 312 314 318 320 318 318 317 315 314 313 314 320
216 218 220 223 226 227 229 232 233 235 237 239 240 239 237 236 235 236 237 238 240 241 241 240 240 239 239 238 238 239 240 242 243 244 245 246 246 246 247 246 245 245 245 244 243 242 244 246 246 245 243 242 241 242 243 243 244 245 247 248 250 254 259 264 266 268 271 274 279 286 290 296 306 311 312 317 319 316 315 314 312 311 311 312 319
217 219 220 222 224 227 230 232 234 235 236 238 240 240 238 236 235 236 236 238 239 240 241 240 240 239 239 239 239 239 240 242 243 244 244 244 244 244 245 246 247 247 248 248 248 247 246 247 248 247 245 244 245 247 247 245 243 242 242 243 250 257 261 265 269 271 274 278 282 284 288 296 306 311 313 316 315 311 310 309 308 308 307 308 315
218 220 222 223 225 229 232 234 235 236 237 238 240 240 239 237 236 236 236 237 238 240 241 240 240 239 239 239 240 240 241 242 243 244 244 243 243 244 244 245 247 248 249 251 252 251 250 249 249 249 248 248 250 252 253 251 248 245 244 246 251 256 259 263 266 270 274 277 280 283 289 298 303 308 313 313 308 305 304 304 303 301 301 306 314
221 223 224 226 228 229 231 234 236 237 238 238 239 240 240 240 238 237 236 236 237 238 239 240 240 239 239 240 241 241 242 242 243 244 244 244 244 244 245 246 247 249 250 252 253 253 252 252 251 250 250 251 254 256 257 258 257 254 252 251 253 255 259 261 263 266 269 273 277 284 292 297 300 306 311 308 302 301 300 299 298 297 299 308 317
224 227 228 229 231 231 231 234 235 236 237 238 239 241 242 242 241 238 236 235 235 237 238 239 240 240 239 239 240 242 243 243 243 244 244 245 246 246 246 246 248 249 250 252 253 254 254 254 254 253 252 253 255 258 260 262 264 264 262 259 256 256 258 260 262 266 269 273 279 285 291 296 298 302 305 302 299 299 297 293 293 296 301 309 316
228 230 231 232 232 232 232 234 235 236 236 237 238 241 242 243 242 240 238 235 235 236 238 238 239 240 240 239 240 242 243 244 244 244 245 245 246 246 247 247 248 250 250 250 251 253 253 254 254 253 253 253 254 256 260 263 265 266 266 264 261 260 259 259 261 265 268 272 276 281 287 291 294 296 298 298 300 299 293 288 290 296 301 305 312
232 234 235 234 233 233 233 235 235 235 235 236 238 241 242 243 243 241 239 236 235 235 236 237 238 239 239 239 239 241 243 244 244 244 245 245 245 246 246 246 247 248 248 248 248 250 251 252 253 254 254 254 253 253 257 260 262 263 264 264 263 262 261 262 262 264 267 269 273 277 282 285 289 292 295 298 302 297 288 286 292 296 296 298 306
234 236 238 238 236 235 236 237 236 235 236 237 240 242 242 243 243 242 241 239 236 235 236 237 238 238 239 240 240 241 242 244 245 245 245 245 244 245 246 246 247 247 247 246 246 248 249 250 252 253 254 254 254 254 256 257 259 260 261 262 263 263 266 268 269 270 271 272 273 277 281 285 289 292 295 299 301 292 282 284 290 289 288 292 300
236 237 239 240 239 239 242 243 241 238 238 240 241 241 242 243 242 242 243 241 238 236 236 237 238 238 238 239 240 241 243 244 245 246 246 246 245 245 246 246 247 246 246 246 246 247 248 248 249 251 253 255 256 257 258 257 257 260 261 263 265 268 272 277 278 280 281 281 282 283 286 289 292 293 295 296 295 287 281 282 282 279 282 286 292
247 245 244 243 242 244 246 247 246 244 243 243 243 241 241 241 241 242 242 241 238 236 235 236 237 238 238 238 239 241 242 244 246 247 247 247 246 246 245 245 246 247 248 247 247 247 248 248 249 250 253 255 257 259 260 259 260 262 263 264 267 272 280 283 284 286 287 288 289 289 290 291 291 291 292 292 290 286 282 279 276 275 277 280 283
259 256 252 250 249 251 251 249 248 248 248 247 245 242 241 240 240 241 241 240 237 235 234 235 236 238 239 238 239 240 242 243 245 247 247 247 247 246 245 246 249 250 252 252 251 250 250 250 250 251 254 257 259 261 263 263 264 265 265 266 271 277 282 283 284 286 287 288 289 289 289 289 289 288 289 289 289 287 284 280 277 274 275 277 280
254 250 250 252 253 256 256 253 250 248 247 245 242 242 242 241 240 240 239 238 237 235 234 233 234 237 238 239 239 240 241 243 245 246 247 247 248 247 246 248 251 253 254 256 256 256 257 257 257 256 257 259 261 263 264 265 266 267 268 271 274 277 279 280 282 283 284 285 286 286 286 286 286 286 287 287 287 285 283 280 276 272 272 275 280
251 246 244 247 250 254 256 256 252 247 244 241 240 241 242 241 239 238 237 236 235 234 233 232 232 234 237 238 239 240 241 242 243 245 246 246 247 248 248 250 252 253 255 257 259 261 264 264 263 262 261 262 262 263 264 265 265 266 268 270 272 274 275 275 276 277 278 279 279 280 280 281 282 283 284 286 286 285 282 278 274 272 272 275 280
253 249 245 244 247 250 252 254 253 249 244 241 239 239 239 239 237 236 236 235 233 233 233 231 231 232 234 236 238 239 240 240 241 244 245 246 246 248 249 250 251 253 254 257 261 263 265 265 266 266 266 267 267 266 266 265 265 265 266 266 266 267 267 267 268 269 270 270 271 273 275 277 279 282 285 288 288 285 281 277 273 271 272 275 279
254 252 248 246 246 248 249 250 252 250 246 241 238 237 237 235 233 233 233 233 232 233 233 231 230 230 232 234 236 237 238 239 240 242 244 245 246 248 249 249 250 252 253 256 259 261 264 266 267 268 269 269 269 268 267 266 266 267 266 265 263 261 259 258 259 260 262 264 267 271 275 280 283 285 288 288 284 281 278 275 272 270 270 273 277
260 255 251 249 247 249 251 250 250 249 245 240 238 238 236 232 230 229 229 230 232 233 233 231 230 229 231 233 234 236 237 238 240 241 243 244 246 248 249 248 248 249 251 254 257 259 262 264 266 267 268 268 269 269 269 269 270 270 269 268 264 259 254 253 255 258 262 267 272 277 282 286 286 285 284 282 279 275 273 272 271 269 269 272 276
270 261 255 251 249 250 251 249 247 245 241 237 235 234 233 230 228 227 227 228 231 232 232 231 230 230 230 232 233 234 236 237 239 241 242 243 244 245 245 244 243 244 247 249 252 254 256 259 261 263 265 266 267 268 268 268 268 269 268 268 265 260 256 255 256 259 264 270 274 279 283 285 284 284 283 281 277 271 266 266 267 267 268 271 272
276 267 259 254 252 251 251 249 246 243 238 233 231 231 229 227 225 226 228 229 229 230 231 231 231 231 231 231 231 232 234 236 238 240 242 244 244 243 241 239 237 238 241 244 246 249 251 254 257 259 261 263 265 265 266 266 267 268 269 269 268 265 262 260 259 261 264 268 271 275 279 281 284 285 284 280 273 265 260 259 261 263 264 265 263
282 271 263 257 253 251 250 248 245 241 236 231 231 232 233 232 231 231 232 233 233 234 234 234 235 234 232 231 232 232 233 236 240 242 245 246 246 245 243 242 241 240 243 245 246 248 251 253 255 257 260 262 264 264 265 266 267 268 268 269 269 268 266 264 264 265 266 267 268 271 274 278 282 284 281 275 268 261 256 254 253 253 255 257 256
288 278 269 262 255 252 252 249 243 238 234 231 230 232 233 235 235 235 234 234 235 236 236 238 241 240 236 234 234 235 236 240 243 244 246 248 251 251 250 250 249 249 251 250 248 249 252 253 255 258 260 262 263 264 265 266 267 267 268 268 268 268 268 267 267 267 267 266 266 268 269 273 277 276 273 269 262 252 246 245 245 245 247 250 251
292 285 278 270 259 253 253 249 241 236 233 231 229 229 228 229 229 230 231 233 234 234 235 238 242 243 241 239 238 239 240 242 243 245 246 249 251 253 253 254 254 253 254 252 250 250 253 255 258 260 260 261 262 264 265 266 267 268 269 269 269 270 270 270 270 270 270 267 265 264 263 266 269 268 266 265 257 243 238 240 242 242 242 244 246
290 287 284 277 264 252 244 239 234 232 231 229 228 226 225 224 225 225 226 229 231 233 235 237 240 242 243 244 243 242 242 242 242 244 246 248 250 252 254 254 253 252 251 249 249 251 254 256 259 260 260 260 262 263 265 266 267 268 269 270 271 272 272 273 275 274 269 262 259 257 255 258 264 266 264 262 257 247 243 246 246 241 239 242 247
287 285 283 278 266 251 240 232 226 224 223 223 223 223 221 220 221 222 223 225 228 231 233 237 239 241 243 246 247 247 247 246 245 245 246 247 249 251 251 251 250 250 248 247 247 250 253 254 255 255 257 259 261 263 265 267 269 270 271 272 274 275 275 277 277 269 258 252 252 253 252 255 262 265 265 264 261 257 253 250 243 236 236 243 248
284 281 280 277 265 249 237 231 227 222 219 218 218 219 219 218 217 219 220 222 224 227 230 234 237 240 243 246 247 247 248 249 249 249 249 250 251 251 251 251 251 250 247 246 247 250 251 251 251 252 254 256 258 261 263 266 269 272 273 274 274 275 275 274 268 259 251 249 251 254 255 257 262 268 272 273 269 264 256 246 237 233 237 244 246
283 278 276 276 268 250 235 230 227 222 218 215 215 217 219 218 217 218 221 222 224 228 231 233 236 240 243 244 244 245 246 248 250 250 250 250 250 250 250 250 250 249 248 247 247 247 247 247 248 250 253 254 256 258 262 266 269 272 272 272 271 271 268 262 254 249 248 250 253 256 258 260 264 267 272 273 269 262 253 245 238 236 238 240 240
281 277 275 274 268 252 235 227 223 220 216 213 211 212 214 216 218 221 225 227 229 232 234 235 236 240 243 244 244 244 244 246 248 249 248 248 247 247 247 247 248 247 246 246 246 245 245 246 248 250 252 254 256 257 259 264 270 273 272 270 266 263 259 253 248 246 247 251 254 256 257 259 261 263 266 269 268 262 254 247 242 237 234 235 236
271 271 270 269 267 256 243 233 228 226 222 215 210 209 211 213 217 222 227 231 232 234 235 234 233 234 238 241 242 242 242 243 245 245 245 245 244 243 243 243 243 242 242 241 242 242 243 245 247 248 250 251 252 252 257 266 274 276 272 266 259 253 250 250 251 252 254 257 259 259 258 258 260 262 263 264 264 259 250 242 237 234 233 233 232
255 254 257 263 263 254 245 240 236 231 227 221 216 214 214 215 217 221 225 230 233 234 234 232 228 226 228 234 238 239 239 239 240 240 240 240 239 238 238 238 239 240 240 240 240 241 242 243 243 244 245 244 243 248 261 271 275 273 267 259 254 250 250 253 256 258 260 263 263 261 259 258 259 261 260 260 259 253 243 236 233 231 232 233 232
244 249 246 250 248 239 237 237 235 231 228 226 223 222 221 221 223 225 226 228 230 231 231 228 224 220 220 226 231 232 231 231 232 233 234 233 232 231 230 232 234 236 237 237 238 240 242 241 240 241 241 239 241 254 266 271 272 268 259 252 252 254 256 258 260 261 261 261 260 257 255 254 255 257 257 256 251 241 234 231 229 229 233 237 238
131 213 208 195 197 216 230 235 234 231 230 231 230 230 230 230 230 232 231 229 229 230 229 225 220 217 216 219 223 225 225 225 225 225 226 226 225 223 224 227 231 233 233 233 234 236 240 242 242 241 239 239 246 258 264 264 265 265 258 251 251 256 260 263 263 260 256 252 251 250 249 247 248 251 253 251 243 233 229 228 228 231 239 243 240
98 138 177 182 185 197 214 225 228 229 231 233 234 235 236 236 235 232 229 227 228 230 227 220 216 213 210 211 217 221 221 221 220 219 218 218 218 219 221 225 228 230 230 230 230 235 241 245 243 240 240 243 253 264 266 261 258 257 255 251 251 254 256 255 253 250 245 241 240 241 242 243 245 248 249 245 236 229 228 230 235 242 246 241 232
61 110 157 169 175 187 199 210 216 219 220 222 226 229 229 230 229 226 225 225 226 224 220 215 210 206 201 203 211 216 217 216 215 213 213 214 215 218 223 225 227 230 232 233 233 237 241 243 243 243 247 254 261 265 263 259 252 245 239 235 237 242 245 240 234 233 235 236 236 237 239 241 244 245 242 236 231 229 232 238 246 249 242 229 222
39 56 95 147 161 167 172 185 201 206 203 203 209 213 213 214 214 214 215 216 215 212 209 207 205 200 196 198 206 212 213 213 212 211 212 215 216 219 222 224 225 226 228 230 231 231 232 233 237 242 251 260 263 261 258 256 250 240 227 217 217 223 228 224 217 216 220 225 229 231 232 232 232 230 227 226 228 232 238 242 241 235 225 218 220
31 45 48 63 133 152 146 151 172 188 191 191 195 198 200 202 203 202 202 202 201 201 201 201 199 195 192 195 203 210 210 207 204 203 203 206 209 213 216 218 220 221 220 220 220 219 221 227 235 244 251 255 253 249 247 246 243 240 233 222 218 218 218 218 215 211 210 212 215 218 218 216 215 217 219 222 227 232 232 227 222 221 220 220 222
28 46 59 62 74 105 114 118 143 165 176 180 182 184 187 190 191 190 190 189 189 190 191 190 189 189 188 190 196 201 200 194 190 190 192 196 204 212 217 222 226 226 223 222 222 224 228 235 241 243 241 236 232 230 231 230 231 232 232 229 222 214 211 211 211 208 207 208 208 208 208 209 212 217 221 224 226 224 218 216 219 224 226 226 228
47 51 68 75 77 82 85 89 112 143 161 167 167 168 171 175 176 175 175 176 176 176 176 176 175 175 175 177 180 182 181 178 178 183 190 194 197 200 201 202 206 208 208 209 211 214 219 222 223 222 217 210 207 208 208 203 199 202 209 213 212 208 207 207 205 205 206 206 204 205 208 212 215 217 218 220 223 223 221 221 224 226 229 232 236
67 68 80 87 87 91 99 102 107 121 138 149 150 149 152 157 159 157 156 157 159 158 157 158 156 154 152 153 157 161 163 165 170 175 179 180 180 181 181 180 181 184 186 186 187 189 192 194 196 195 189 180 177 178 177 172 171 180 193 203 206 206 206 206 204 204 203 202 202 206 213 216 217 216 217 222 228 231 229 228 229 231 234 238 240
77 83 96 105 105 108 113 114 114 118 123 126 126 123 126 135 141 140 136 136 138 137 135 136 138 138 137 140 147 153 157 161 165 167 169 169 166 164 165 167 167 167 168 170 169 168 167 167 166 166 166 166 165 165 167 170 172 176 183 192 198 202 205 206 205 202 200 200 203 209 215 216 216 216 218 223 229 232 233 233 234 235 235 237 239
94 98 107 114 117 120 125 125 125 127 128 127 128 128 124 124 129 130 126 124 126 129 130 130 131 132 134 138 144 148 149 151 153 152 152 151 150 148 150 151 149 148 149 152 152 152 153 155 157 160 163 165 166 167 170 173 175 177 181 187 193 196 199 201 200 199 199 201 204 208 212 214 215 217 220 222 225 228 231 232 233 234 235 236 239
125 117 115 118 118 120 126 131 131 132 133 132 133 134 131 127 129 129 122 114 115 121 123 122 122 126 130 134 138 141 142 144 146 145 144 143 143 142 143 142 141 141 144 147 148 149 152 154 158 161 162 163 164 166 169 172 174 177 180 184 189 193 196 198 199 201 203 207 211 214 217 219 220 220 222 224 224 226 228 231 234 238 242 245 250
139 132 126 125 125 125 129 133 133 133 133 132 131 131 130 128 128 127 121 116 116 120 121 119 119 123 127 131 134 137 140 142 143 142 141 141 141 141 143 145 145 147 150 151 151 152 154 156 157 159 160 161 163 165 167 169 171 172 173 177 183 187 191 196 201 206 209 214 219 223 225 229 231 232 233 235 238 241 243 247 249 253 257 262 267